Hourly Weather Kozlovichi

Today, 29 October, Thursday

Time Temperature Precipitation Wind Pressure Humidity
00:00 +12°C° 0 mm 3 mps 749 mmHg 85%
01:00 +12°C° 0 mm 3 mps 749 mmHg 87%
02:00 +12°C° 0 mm 2 mps 749 mmHg 91%
03:00 +12°C° 0 mm 2 mps 749 mmHg 92%
04:00 +12°C° 0 mm 2 mps 748 mmHg 93%
05:00 +10°C° 0 mm 2 mps 748 mmHg 95%
06:00 +10°C° 0 mm 2 mps 748 mmHg 95%
07:00 +10°C° 0 mm 2 mps 748 mmHg 95%
08:00 +10°C° 0 mm 2 mps 748 mmHg 95%
09:00 +12°C° 0 mm 2 mps 748 mmHg 91%
10:00 +12°C° 0 mm 2 mps 748 mmHg 86%
11:00 +13°C° 0 mm 2 mps 748 mmHg 82%
12:00 +13°C° 0.2 mm 2 mps 748 mmHg 80%
13:00 +13°C° 0.2 mm 2 mps 747 mmHg 79%
14:00 +13°C° 0.2 mm 2 mps 747 mmHg 77%
15:00 +12°C° 0 mm 2 mps 747 mmHg 79%
16:00 +12°C° 0 mm 2 mps 747 mmHg 81%
17:00 +10°C° 0 mm 2 mps 747 mmHg 84%
18:00 +10°C° 0 mm 2 mps 747 mmHg 85%
19:00 +9°C° 0 mm 2 mps 747 mmHg 87%
20:00 +9°C° 0 mm 2 mps 747 mmHg 89%
21:00 +9°C° 0 mm 2 mps 747 mmHg 89%
22:00 +9°C° 0 mm 2 mps 747 mmHg 90%
23:00 +9°C° 0 mm 2 mps 747 mmHg 91%

Tomorrow, 30 October, Friday

Time Temperature Precipitation Wind Pressure Humidity
00:00 +9°C° 0.1 mm 3 mps 748 mmHg 90%
01:00 +9°C° 0.1 mm 3 mps 748 mmHg 90%
02:00 +9°C° 0.1 mm 3 mps 748 mmHg 89%
03:00 +9°C° 0 mm 3 mps 748 mmHg 90%
04:00 +8°C° 0 mm 3 mps 748 mmHg 90%
05:00 +7°C° 0 mm 3 mps 748 mmHg 90%
06:00 +7°C° 0 mm 3 mps 749 mmHg 91%
07:00 +5°C° 0 mm 3 mps 749 mmHg 92%
08:00 +5°C° 0 mm 3 mps 749 mmHg 93%
09:00 +5°C° 0 mm 4 mps 749 mmHg 90%
10:00 +6°C° 0 mm 4 mps 749 mmHg 86%
11:00 +7°C° 0 mm 4 mps 750 mmHg 83%
12:00 +7°C° 0.1 mm 4 mps 749 mmHg 82%
13:00 +7°C° 0.1 mm 4 mps 749 mmHg 82%
14:00 +7°C° 0.1 mm 4 mps 749 mmHg 82%
15:00 +7°C° 0 mm 4 mps 749 mmHg 82%
16:00 +7°C° 0 mm 4 mps 749 mmHg 82%
17:00 +7°C° 0 mm 3 mps 749 mmHg 82%
18:00 +7°C° 0 mm 3 mps 749 mmHg 82%
19:00 +8°C° 0 mm 3 mps 750 mmHg 81%
20:00 +8°C° 0 mm 3 mps 750 mmHg 81%
21:00 +8°C° 0.4 mm 3 mps 750 mmHg 83%
22:00 +8°C° 0.4 mm 3 mps 750 mmHg 85%
23:00 +8°C° 0.4 mm 3 mps 750 mmHg 87%

Day after tomorrow, 31 October, Saturday

Time Temperature Precipitation Wind Pressure Humidity
00:00 +8°C° 0.2 mm 3 mps 750 mmHg 88%
01:00 +8°C° 0.2 mm 3 mps 750 mmHg 89%
02:00 +7°C° 0.2 mm 3 mps 750 mmHg 90%
03:00 +7°C° 0 mm 3 mps 751 mmHg 90%
04:00 +7°C° 0 mm 3 mps 751 mmHg 89%
05:00 +7°C° 0 mm 3 mps 751 mmHg 88%
06:00 +7°C° 0 mm 3 mps 752 mmHg 89%
07:00 +7°C° 0 mm 3 mps 752 mmHg 90%
08:00 +7°C° 0 mm 3 mps 753 mmHg 91%
09:00 +8°C° 0 mm 3 mps 753 mmHg 88%
10:00 +8°C° 0 mm 3 mps 754 mmHg 84%
11:00 +9°C° 0 mm 3 mps 754 mmHg 80%
12:00 +9°C° 0 mm 3 mps 755 mmHg 78%
13:00 +10°C° 0 mm 3 mps 755 mmHg 75%
14:00 +10°C° 0 mm 2 mps 755 mmHg 73%
15:00 +9°C° 0 mm 2 mps 755 mmHg 77%
16:00 +9°C° 0 mm 2 mps 756 mmHg 81%
17:00 +8°C° 0 mm 2 mps 756 mmHg 85%
18:00 +8°C° 0 mm 2 mps 756 mmHg 87%
19:00 +8°C° 0 mm 2 mps 756 mmHg 89%
20:00 +8°C° 0 mm 2 mps 757 mmHg 91%
21:00 +8°C° 0 mm 2 mps 757 mmHg 91%
22:00 +9°C° 0 mm 1 mps 757 mmHg 91%
23:00 +9°C° 0 mm 1 mps 757 mmHg 90%

1 November, Sunday

Time Temperature Precipitation Wind Pressure Humidity
00:00 +9°C° 0 mm 1 mps 757 mmHg 90%
01:00 +9°C° 0 mm 1 mps 757 mmHg 90%
02:00 +8°C° 0 mm 1 mps 757 mmHg 89%
03:00 +8°C° 0 mm 1 mps 757 mmHg 91%
04:00 +7°C° 0 mm 1 mps 757 mmHg 92%
05:00 +6°C° 0 mm 2 mps 757 mmHg 94%
06:00 +7°C° 0 mm 1 mps 757 mmHg 95%
07:00 +7°C° 0 mm 1 mps 757 mmHg 95%
08:00 +6°C° 0 mm 1 mps 757 mmHg 96%
09:00 +8°C° 0 mm 1 mps 757 mmHg 91%
10:00 +9°C° 0 mm 1 mps 757 mmHg 86%
11:00 +10°C° 0 mm 1 mps 757 mmHg 81%
12:00 +10°C° 0 mm 2 mps 757 mmHg 78%
13:00 +12°C° 0 mm 2 mps 756 mmHg 75%
14:00 +12°C° 0 mm 2 mps 756 mmHg 72%
15:00 +10°C° 0 mm 2 mps 756 mmHg 77%
16:00 +9°C° 0 mm 2 mps 755 mmHg 82%
17:00 +9°C° 0 mm 2 mps 755 mmHg 86%
18:00 +8°C° 0 mm 2 mps 755 mmHg 88%
19:00 +8°C° 0 mm 2 mps 755 mmHg 90%
20:00 +7°C° 0 mm 2 mps 755 mmHg 92%
21:00 +7°C° 0 mm 2 mps 755 mmHg 92%
22:00 +6°C° 0 mm 2 mps 755 mmHg 93%
23:00 +5°C° 0 mm 3 mps 755 mmHg 93%

2 November, Monday

Time Temperature Precipitation Wind Pressure Humidity
00:00 +5°C° 0 mm 3 mps 755 mmHg 94%
01:00 +5°C° 0 mm 3 mps 754 mmHg 94%
02:00 +5°C° 0 mm 3 mps 754 mmHg 95%
03:00 +4°C° 0 mm 3 mps 754 mmHg 95%
04:00 +4°C° 0 mm 3 mps 754 mmHg 95%
05:00 +4°C° 0 mm 3 mps 753 mmHg 95%
06:00 +4°C° 0 mm 3 mps 753 mmHg 95%
07:00 +4°C° 0 mm 3 mps 753 mmHg 95%
08:00 +4°C° 0 mm 4 mps 753 mmHg 95%
09:00 +5°C° 0 mm 4 mps 753 mmHg 89%
10:00 +6°C° 0 mm 4 mps 753 mmHg 84%
11:00 +7°C° 0 mm 5 mps 753 mmHg 79%
12:00 +8°C° 0 mm 5 mps 753 mmHg 76%
13:00 +9°C° 0 mm 5 mps 753 mmHg 73%
14:00 +10°C° 0 mm 5 mps 753 mmHg 69%
15:00 +9°C° 0 mm 5 mps 752 mmHg 73%
16:00 +8°C° 0 mm 4 mps 752 mmHg 77%
17:00 +7°C° 0 mm 4 mps 752 mmHg 80%
18:00 +7°C° 0 mm 4 mps 752 mmHg 82%
19:00 +7°C° 0 mm 4 mps 752 mmHg 83%
20:00 +6°C° 0 mm 5 mps 752 mmHg 85%
21:00 +6°C° 0 mm 5 mps 752 mmHg 86%
22:00 +6°C° 0 mm 5 mps 752 mmHg 87%
23:00 +5°C° 0 mm 5 mps 752 mmHg 88%

3 November, Tuesday

Time Temperature Precipitation Wind Pressure Humidity
00:00 +5°C° 0 mm 5 mps 753 mmHg 88%
01:00 +5°C° 0 mm 5 mps 753 mmHg 89%
02:00 +5°C° 0 mm 5 mps 753 mmHg 89%
03:00 +5°C° 0 mm 5 mps 753 mmHg 89%
04:00 +5°C° 0 mm 5 mps 753 mmHg 89%
05:00 +3°C° 0 mm 5 mps 753 mmHg 89%
06:00 +4°C° 0 mm 4 mps 753 mmHg 88%
07:00 +4°C° 0 mm 4 mps 753 mmHg 87%
08:00 +4°C° 0 mm 4 mps 754 mmHg 87%
09:00 +5°C° 0 mm 4 mps 754 mmHg 83%
10:00 +6°C° 0 mm 4 mps 754 mmHg 79%
11:00 +7°C° 0 mm 4 mps 754 mmHg 76%
12:00 +8°C° 0 mm 4 mps 754 mmHg 73%
13:00 +10°C° 0 mm 4 mps 754 mmHg 69%
14:00 +11°C° 0 mm 4 mps 754 mmHg 66%
15:00 +10°C° 0 mm 4 mps 755 mmHg 72%
16:00 +9°C° 0 mm 3 mps 755 mmHg 77%
17:00 +8°C° 0 mm 3 mps 755 mmHg 83%
18:00 +8°C° 0 mm 3 mps 755 mmHg 86%
19:00 +6°C° 0 mm 4 mps 755 mmHg 89%
20:00 +6°C° 0 mm 4 mps 756 mmHg 92%
21:00 +5°C° 0 mm 4 mps 756 mmHg 92%
22:00 +5°C° 0 mm 4 mps 756 mmHg 93%
23:00 +5°C° 0 mm 3 mps 756 mmHg 93%
Show more